GW4795 Weather Reports


time (UTC)temp
F
wind
direction
speed
knots
gust
knots
rain 1hr
in
rain 24hr
in
rain mn
in
humidity
%
barometer
mb
20260831031003 64 261 0.9 3.5 0.00 0.00 0.00 67 1018.4
20260831030502 65 283 0.9 5.2 0.00 0.00 0.00 67 1018.4
20260831030005 65 286 0.9 5.2 0.00 0.00 0.00 66 1018.3
20260831025502 65 303 1.7 5.2 0.00 0.00 0.00 65 1018.3
20260831025004 65 238 1.7 3.5 0.00 0.00 0.00 65 1018.3
20260831024510 66 293 0.9 6.1 0.00 0.00 0.00 64 1018.3
20260831024006 66 317 1.7 6.1 0.00 0.00 0.00 63 1018.3
20260831023510 67 248 3.5 6.1 0.00 0.00 0.00 62 1018.3
20260831023017 67 296 2.6 6.1 0.00 0.00 0.00 61 1018.3
20260831022508 67 280 1.7 3.5 0.00 0.00 0.00 59 1018.4
20260831022010 67 277 1.7 6.1 0.00 0.00 0.00 59 1018.4
20260831021524 68 299 2.6 6.1 0.00 0.00 0.00 58 1018.4
20260831021010 68 293 2.6 6.1 0.00 0.00 0.00 57 1018.4
20260831020503 68 239 3.5 6.1 0.00 0.00 0.00 57 1018.5
20260831020002 68 218 0.9 7.0 0.00 0.00 0.00 56 1018.5
20260831015505 69 283 2.6 7.0 0.00 0.00 0.00 55 1018.5
20260831015004 69 277 1.7 6.1 0.00 0.00 0.00 55 1018.4
20260831014507 69 305 2.6 6.1 0.00 0.00 0.00 54 1018.5
20260831014005 69 245 2.6 6.1 0.00 0.00 0.00 54 1018.5
20260831013506 69 274 2.6 6.1 0.00 0.00 0.00 54 1018.6
20260831013015 70 256 1.7 5.2 0.00 0.00 0.00 54 1018.7
20260831012508 70 294 1.7 7.8 0.00 0.00 0.00 53 1018.7
20260831012007 70 275 2.6 7.8 0.00 0.00 0.00 52 1018.7
20260831011525 70 242 1.7 7.8 0.00 0.00 0.00 53 1018.7
20260831011011 70 238 1.7 7.8 0.00 0.00 0.00 51 1018.8
20260831010512 71 236 1.7 6.1 0.00 0.00 0.00 52 1018.8
20260831010031 71 311 3.5 7.0 0.00 0.00 0.00 52 1018.8
20260831005503 71 311 1.7 7.0 0.00 0.00 0.00 52 1018.8
20260831005003 71 286 2.6 7.0 0.00 0.00 0.00 51 1018.9
20260831004507 71 288 2.6 6.1 0.00 0.00 0.00 52 1018.9
20260831004002 71 242 2.6 6.1 0.00 0.00 0.00 51 1018.9
20260831003502 70 256 2.6 5.2 0.00 0.00 0.00 51 1019.0
20260831003010 71 209 1.7 5.2 0.00 0.00 0.00 50 1019.0
20260831002507 71 198 1.7 5.2 0.00 0.00 0.00 49 1019.0
20260831002005 72 197 1.7 5.2 0.00 0.00 0.00 50 1018.9
20260831001517 72 238 1.7 5.2 0.00 0.00 0.00 49 1018.9
20260831001007 72 261 1.7 5.2 0.00 0.00 0.00 49 1018.9
20260831000509 72 285 3.5 6.1 0.00 0.00 0.00 48 1018.9
20260831000026 72 210 1.7 6.1 0.00 0.00 0.00 48 1018.9
20260830235513 72 184 1.7 5.2 0.00 0.00 0.00 48 1018.9
20260830235016 73 151 0.9 4.3 0.00 0.00 0.00 47 1018.9
20260830234533 74 182 1.7 7.8 0.00 0.00 0.00 47 1018.9
20260830234008 74 221 0.9 7.8 0.00 0.00 0.00 47 1019.0
20260830233504 74 254 3.5 7.8 0.00 0.00 0.00 46 1019.1
20260830233008 75 261 3.5 7.8 0.00 0.00 0.00 45 1019.1
20260830232504 75 319 0.9 6.1 0.00 0.00 0.00 45 1019.0
20260830232011 75 14 3.5 6.1 0.00 0.00 0.00 46 1019.1
20260830231518 75 285 1.7 6.1 0.00 0.00 0.00 46 1019.1
20260830231009 76 275 3.5 6.1 0.00 0.00 0.00 45 1019.2
20260830230510 76 278 2.6 5.2 0.00 0.00 0.00 46 1019.3
20260830230024 76 222 2.6 7.8 0.00 0.00 0.00 46 1019.3
20260830225512 75 271 3.5 7.8 0.00 0.00 0.00 47 1019.3
20260830225013 75 303 2.6 7.0 0.00 0.00 0.00 49 1019.3
20260830224528 74 175 1.7 7.0 0.00 0.00 0.00 48 1019.3
20260830224013 73 9 3.5 7.0 0.00 0.00 0.00 51 1019.4
20260830223516 73 139 2.6 5.2 0.00 0.00 0.00 48 1019.6
20260830223008 73 184 1.7 5.2 0.00 0.00 0.00 47 1019.6
20260830222505 73 265 1.7 7.8 0.00 0.00 0.00 48 1019.7
20260830222004 74 172 3.5 7.8 0.00 0.00 0.00 45 1019.7
20260830221515 75 148 1.7 5.2 0.00 0.00 0.00 46 1019.8
20260830221009 75 213 0.9 5.2 0.00 0.00 0.00 43 1019.8
20260830220510 75 138 2.6 5.2 0.00 0.00 0.00 42 1019.8
20260830220019 76 184 1.7 5.2 0.00 0.00 0.00 43 1019.8
20260830215512 75 284 2.6 5.2 0.00 0.00 0.00 46 1019.8
20260830215013 75 17 0.9 5.2 0.00 0.00 0.00 48 1019.8
20260830214529 74 223 0.9 5.2 0.00 0.00 0.00 48 1019.9
20260830214016 73 166 1.7 6.1 0.00 0.00 0.00 47 1019.9
20260830213513 73 154 2.6 7.8 0.00 0.00 0.00 49 1020.1
20260830213030 73 199 0.9 7.8 0.00 0.00 0.00 48 1020.0
20260830212514 73 155 0.0 3.5 0.00 0.00 0.00 49 1020.0
20260830212014 72 192 1.7 5.2 0.00 0.00 0.00 48 1020.1
20260830211513 73 200 1.7 7.0 0.00 0.00 0.00 47 1020.2
20260830211009 73 152 1.7 7.0 0.00 0.00 0.00 46 1020.3
20260830210508 72 249 2.6 7.0 0.00 0.00 0.00 50 1020.3
20260830210020 72 194 2.6 6.1 0.00 0.00 0.00 48 1020.3
20260830205508 72 173 1.7 5.2 0.00 0.00 0.00 51 1020.4
20260830205011 71 192 1.7 7.8 0.00 0.00 0.00 52 1020.3
20260830204526 71 123 1.7 7.8 0.00 0.00 0.00 52 1020.3
20260830204012 71 190 1.7 7.0 0.00 0.00 0.00 52 1020.4
20260830203503 71 196 3.5 7.0 0.00 0.00 0.00 53 1020.4
20260830203005 70 212 0.9 3.5 0.00 0.00 0.00 55 1020.4
20260830202506 70 163 1.7 7.0 0.00 0.00 0.00 55 1020.6
20260830202005 70 136 1.7 8.7 0.00 0.00 0.00 55 1020.6
20260830201508 70 196 4.3 8.7 0.00 0.00 0.00 55 1020.6
20260830201006 70 175 1.7 7.8 0.00 0.00 0.00 55 1020.7
20260830200508 70 171 2.6 7.8 0.00 0.00 0.00 56 1020.7
20260830200019 71 144 1.7 7.0 0.00 0.00 0.00 50 1020.7
20260830195508 72 261 1.7 4.3 0.00 0.00 0.00 49 1020.7
20260830195002 73 257 1.7 4.3 0.00 0.00 0.00 51 1020.7
20260830194503 72 313 0.9 4.3 0.00 0.00 0.00 52 1020.7
20260830194005 72 129 0.9 3.5 0.00 0.00 0.00 54 1020.8
20260830193503 72 197 0.9 3.5 0.00 0.00 0.00 52 1020.8
20260830193005 71 272 0.9 5.2 0.00 0.00 0.00 56 1020.8
20260830192504 71 11 1.7 5.2 0.00 0.00 0.00 53 1020.9
20260830192004 70 80 0.9 3.5 0.00 0.00 0.00 55 1020.9
20260830191509 70 134 0.9 3.5 0.00 0.00 0.00 54 1021.0
20260830191004 70 90 0.0 3.5 0.00 0.00 0.00 55 1021.0
20260830190504 69 112 0.0 3.5 0.00 0.01 0.00 59 1021.0
20260830190013 69 48 0.9 3.5 0.00 0.01 0.00 58 1021.0
20260830185508 69 27 0.9 2.6 0.00 0.01 0.00 59 1021.0
20260830185008 69 169 0.9 2.6 0.00 0.01 0.00 58 1021.1
20260830184522 68 27 0.9 6.1 0.00 0.01 0.00 62 1021.1
20260830184008 68 150 1.7 6.1 0.00 0.01 0.00 60 1021.1
20260830183503 67 273 0.9 3.5 0.00 0.01 0.00 63 1021.1
20260830183004 66 61 1.7 3.5 0.00 0.02 0.00 64 1021.0
20260830182503 66 16 0.9 2.6 0.00 0.02 0.00 64 1021.0
20260830182004 65 85 0.9 2.6 0.00 0.02 0.00 66 1021.0
20260830181505 64 90 0.9 2.6 0.00 0.02 0.00 66 1021.0
20260830181005 64 88 0.9 4.3 0.00 0.03 0.00 64 1020.9
20260830180506 65 34 0.9 4.3 0.00 0.03 0.00 64 1020.9
20260830180016 65 23 1.7 4.3 0.00 0.03 0.00 65 1020.9
20260830175507 65 11 1.7 4.3 0.00 0.03 0.00 66 1020.9
20260830175008 65 129 0.0 2.6 0.00 0.04 0.00 65 1020.9
20260830174525 65 82 0.0 1.7 0.00 0.04 0.00 66 1021.0
20260830174009 64 110 0.0 4.3 0.00 0.04 0.00 66 1021.1
20260830173508 64 90 0.9 4.3 0.00 0.04 0.00 68 1021.0
20260830173023 64 163 0.9 2.6 0.00 0.05 0.00 67 1021.1
20260830172502 64 133 0.9 1.7 0.00 0.05 0.00 68 1021.1
20260830172002 64 240 0.0 2.6 0.00 0.05 0.00 67 1021.0
20260830171505 64 146 0.9 2.6 0.00 0.06 0.00 66 1021.0
20260830171003 64 126 0.9 1.7 0.00 0.06 0.00 67 1021.0
20260830170501 64 150 0.9 1.7 0.00 0.06 0.00 68 1021.0
20260830170008 64 153 0.9 2.6 0.00 0.07 0.00 69 1021.0
20260830165505 63 257 1.7 2.6 0.00 0.07 0.00 71 1021.0
20260830165005 63 234 0.9 4.3 0.00 0.08 0.00 71 1021.0
20260830164517 63 123 0.9 4.3 0.00 0.08 0.00 71 1021.1
20260830164010 62 159 0.9 5.2 0.00 0.09 0.00 74 1021.1
20260830163510 62 195 1.7 5.2 0.00 0.09 0.00 73 1021.0
20260830163036 61 215 0.9 6.1 0.00 0.10 0.00 76 1021.1
20260830162510 61 147 1.7 6.1 0.00 0.10 0.00 76 1021.1
20260830162013 60 171 2.6 6.1 0.00 0.11 0.00 78 1021.1
20260830161526 60 178 0.9 4.3 0.00 0.12 0.00 79 1021.0
20260830161002 60 158 1.7 4.3 0.00 0.12 0.00 80 1021.1
20260830160502 59 155 1.7 5.2 0.00 0.13 0.00 80 1021.0
20260830160022 59 192 1.7 5.2 0.00 0.14 0.00 80 1021.1
20260830155502 59 159 0.9 2.6 0.00 0.15 0.00 84 1021.1
20260830155004 58 163 0.0 1.7 0.00 0.16 0.00 85 1021.0
20260830154514 58 190 0.0 1.7 0.00 0.16 0.00 85 1021.0
20260830154009 58 173 0.0 1.7 0.00 0.17 0.00 86 1021.0
20260830153506 57 147 0.0 1.7 0.00 0.18 0.00 86 1021.0
20260830153017 57 100 0.0 1.7 0.00 0.20 0.00 87 1020.9
20260830152510 57 52 0.0 1.7 0.00 0.21 0.00 87 1021.0
20260830152012 57 20 0.0 1.7 0.00 0.22 0.00 88 1021.0
20260830151526 57 110 0.0 1.7 0.00 0.24 0.00 88 1021.0
20260830151014 56 120 0.0 1.7 0.00 0.25 0.00 88 1021.0
20260830150514 56 92 0.0 2.6 0.00 0.26 0.00 89 1021.0
20260830150009 56 94 0.9 2.6 0.00 0.27 0.00 89 1021.0
20260830145502 56 126 0.0 1.7 0.00 0.28 0.00 90 1020.9
20260830145006 55 85 0.0 1.7 0.00 0.29 0.00 90 1021.0
20260830144507 55 88 0.9 1.7 0.00 0.29 0.00 90 1020.9
20260830144005 55 49 0.0 1.7 0.00 0.30 0.00 89 1020.8
20260830143507 55 49 0.0 1.7 0.00 0.31 0.00 89 1020.8
20260830143016 55 49 0.0 1.7 0.00 0.32 0.00 89 1020.7
20260830142512 55 49 0.0 1.7 0.00 0.32 0.00 88 1020.7
20260830142008 55 49 0.0 1.7 0.00 0.33 0.00 88 1020.6
20260830141532 55 49 0.0 1.7 0.00 0.34 0.00 88 1020.6
20260830141013 55 49 0.0 1.7 0.00 0.35 0.00 87 1020.6
20260830140511 55 49 0.0 0.0 0.00 0.36 0.00 87 1020.6
20260830140027 55 49 0.0 0.0 0.00 0.36 0.00 87 1020.5
20260830135515 55 49 0.0 1.7 0.00 0.36 0.00 87 1020.5
20260830135016 55 49 0.0 1.7 0.00 0.36 0.00 87 1020.5
20260830134508 55 49 0.0 1.7 0.00 0.36 0.00 87 1020.5
20260830134005 56 50 0.0 1.7 0.00 0.36 0.00 87 1020.5
20260830133506 56 46 0.0 0.9 0.00 0.36 0.00 87 1020.5
20260830133021 56 46 0.0 0.9 0.00 0.36 0.00 87 1020.5
20260830132509 56 46 0.0 1.7 0.00 0.36 0.00 87 1020.6
20260830132007 56 46 0.0 1.7 0.00 0.36 0.00 87 1020.6
20260830131518 56 46 0.0 1.7 0.00 0.36 0.00 87 1020.5
20260830131009 56 35 0.0 0.0 0.00 0.37 0.00 87 1020.5
20260830130511 56 35 0.0 0.0 0.00 0.38 0.00 86 1020.6
20260830130030 56 35 0.0 0.0 0.00 0.40 0.00 86 1020.6
20260830125512 56 35 0.0 1.7 0.00 0.43 0.00 86 1020.6
20260830125014 56 35 0.0 1.7 0.00 0.48 0.00 86 1020.5
20260830124530 56 35 0.0 1.7 0.00 0.57 0.00 86 1020.6
20260830124016 56 35 0.0 1.7 0.00 0.70 0.00 86 1020.5
20260830123515 56 35 0.0 1.7 0.00 0.80 0.00 86 1020.5
20260830123010 56 51 0.0 1.7 0.00 0.86 0.00 86 1020.5
20260830122507 56 352 0.0 1.7 0.00 0.90 0.00 86 1020.5
20260830122007 56 259 0.0 1.7 0.00 0.92 0.00 86 1020.5
20260830121533 56 259 0.0 1.7 0.00 0.93 0.00 86 1020.5
20260830121009 56 259 0.0 1.7 0.00 0.94 0.00 85 1020.5
20260830120511 56 252 0.0 1.7 0.00 0.94 0.00 85 1020.6
20260830120024 56 252 0.0 1.7 0.00 0.95 0.00 85 1020.6
20260830115512 56 244 0.0 1.7 0.00 0.95 0.00 85 1020.7
20260830115011 56 244 0.0 1.7 0.00 0.95 0.00 85 1020.6
20260830114526 56 234 0.0 1.7 0.00 0.95 0.00 85 1020.7
20260830114015 56 234 0.0 1.7 0.00 0.95 0.00 85 1020.7
20260830113504 56 234 0.0 1.7 0.00 0.96 0.00 85 1020.6
20260830113008 56 234 0.0 0.0 0.00 0.96 0.00 85 1020.6
20260830112503 57 234 0.0 0.9 0.00 0.96 0.00 85 1020.5
20260830112005 57 234 0.0 1.7 0.00 0.97 0.00 85 1020.5
20260830111512 57 234 0.0 1.7 0.00 0.97 0.00 84 1020.5
20260830111009 57 150 0.0 0.0 0.00 0.97 0.00 84 1020.5
20260830110509 57 150 0.0 1.7 0.00 0.97 0.00 84 1020.4
20260830110005 57 150 0.0 1.7 0.00 0.97 0.00 84 1020.5
20260830105503 57 150 0.0 0.0 0.00 0.97 0.00 84 1020.4
20260830105002 57 150 0.0 1.7 0.00 0.97 0.00 84 1020.4
20260830104503 57 150 0.0 1.7 0.00 0.97 0.00 84 1020.4
20260830104004 57 150 0.0 1.7 0.00 0.97 0.00 83 1020.5
20260830103505 57 150 0.0 0.0 0.00 0.97 0.00 83 1020.5
20260830103007 57 150 0.0 0.0 0.00 0.97 0.00 83 1020.5
20260830102503 57 150 0.0 1.7 0.00 0.97 0.00 83 1020.4
20260830102006 57 150 0.0 1.7 0.00 0.97 0.00 83 1020.4
20260830101514 57 150 0.0 0.9 0.00 0.97 0.00 83 1020.4
20260830101008 57 150 0.0 1.7 0.00 0.97 0.00 83 1020.5
20260830100507 57 148 0.0 1.7 0.00 0.97 0.00 83 1020.5
20260830100020 57 360 0.0 1.7 0.00 0.97 0.00 83 1020.5
20260830095510 57 349 0.0 1.7 0.00 0.97 0.00 83 1020.5
20260830095003 57 41 0.0 1.7 0.00 0.97 0.00 83 1020.4
20260830094503 57 41 0.0 1.7 0.00 0.97 0.00 82 1020.5
20260830094004 57 41 0.0 1.7 0.00 0.97 0.00 82 1020.4
20260830093504 57 52 0.0 1.7 0.00 0.97 0.00 82 1020.5
20260830093003 57 11 0.0 1.7 0.00 0.97 0.00 82 1020.5
20260830092505 57 9 0.0 1.7 0.00 0.97 0.00 82 1020.5
20260830092005 57 64 0.0 1.7 0.00 0.97 0.00 81 1020.5
20260830091515 57 64 0.0 1.7 0.00 0.97 0.00 81 1020.5
20260830091005 57 90 0.0 1.7 0.00 0.97 0.00 81 1020.5
20260830090511 57 90 0.0 1.7 0.00 0.97 0.00 81 1020.5
20260830090017 57 78 0.0 1.7 0.00 0.97 0.00 81 1020.5
20260830085508 57 78 0.0 1.7 0.00 0.97 0.00 81 1020.5
20260830085013 57 78 0.0 0.0 0.00 0.97 0.00 81 1020.5
20260830084523 57 78 0.0 0.0 0.00 0.97 0.00 80 1020.5
20260830084014 57 78 0.0 0.0 0.00 0.97 0.00 81 1020.5
20260830083504 57 78 0.0 0.0 0.00 0.97 0.00 81 1020.5
20260830083005 57 78 0.0 1.7 0.00 0.97 0.00 81 1020.4
20260830082505 57 78 0.0 1.7 0.00 0.97 0.00 80 1020.4
20260830082003 57 78 0.0 0.0 0.00 0.97 0.00 80 1020.3
20260830081506 57 78 0.0 0.0 0.00 0.97 0.00 80 1020.3
20260830081003 57 78 0.0 1.7 0.00 0.97 0.00 80 1020.3
20260830080504 57 78 0.0 1.7 0.00 0.97 0.00 79 1020.3
20260830080016 57 78 0.0 1.7 0.00 0.97 0.00 79 1020.3
20260830075508 58 17 0.0 1.7 0.00 0.97 0.00 79 1020.3
20260830075011 58 5 0.0 0.0 0.00 0.97 0.00 79 1020.3
20260830074530 58 9 0.0 0.0 0.00 0.97 0.00 78 1020.4
20260830074010 58 9 0.0 0.0 0.00 0.97 0.00 78 1020.3
20260830073509 58 5 0.0 1.7 0.00 0.97 0.00 78 1020.3
20260830073025 58 9 0.0 1.7 0.00 0.97 0.00 77 1020.3
20260830072513 58 14 0.0 1.7 0.00 0.97 0.00 77 1020.3
20260830072003 58 14 0.0 1.7 0.00 0.97 0.00 77 1020.2
20260830071504 58 14 0.0 1.7 0.00 0.97 0.00 77 1020.2
20260830071005 59 14 0.0 1.7 0.00 0.97 0.00 76 1020.2
20260830070504 59 5 0.9 1.7 0.00 0.97 0.00 76 1020.2
20260830070010 59 331 0.0 1.7 0.00 0.97 0.00 76 1020.2
20260830065503 59 308 0.0 1.7 0.00 0.97 0.97 75 1020.2
20260830065005 59 336 0.0 1.7 0.00 0.97 0.97 75 1020.1
20260830064518 59 303 0.0 1.7 0.00 0.97 0.97 75 1020.1
20260830064010 59 304 0.0 1.7 0.00 0.97 0.97 75 1020.1
20260830063510 59 304 0.0 2.6 0.00 0.97 0.97 75 1020.1
20260830063028 59 328 0.9 2.6 0.00 0.97 0.97 75 1020.0
20260830062509 60 350 0.9 2.6 0.00 0.97 0.97 75 1020.0
20260830062014 60 229 0.9 1.7 0.00 0.97 0.97 75 1020.0
20260830061547 60 238 0.0 1.7 0.00 0.97 0.97 75 1019.9
20260830061004 60 323 0.0 1.7 0.00 0.97 0.97 74 1019.9
20260830060504 60 288 0.0 2.6 0.00 0.97 0.97 74 1019.9
20260830060008 60 259 0.0 2.6 0.00 0.97 0.97 74 1019.9
20260830055504 60 277 0.9 2.6 0.00 0.97 0.97 73 1019.9
20260830055006 60 282 0.0 2.6 0.00 0.97 0.97 73 1019.9
20260830054522 60 296 0.9 1.7 0.00 0.97 0.97 73 1019.8
20260830054009 60 313 0.9 3.5 0.00 0.97 0.97 73 1019.8
20260830053510 60 317 1.7 6.1 0.00 0.97 0.97 72 1019.7
20260830053020 61 275 2.6 6.1 0.00 0.97 0.97 72 1019.7
20260830052512 61 310 1.7 6.1 0.00 0.97 0.97 71 1019.7
20260830052012 61 321 1.7 6.1 0.00 0.97 0.97 71 1019.7
20260830051528 61 259 0.9 5.2 0.00 0.97 0.97 71 1019.7
20260830051015 61 287 1.7 5.2 0.00 0.97 0.97 71 1019.7
20260830050516 61 345 0.9 3.5 0.00 0.97 0.97 71 1019.7
20260830050035 61 280 0.9 3.5 0.00 0.97 0.97 71 1019.7
20260830045505 62 281 1.7 4.3 0.00 0.97 0.97 71 1019.7
20260830045004 62 310 1.7 4.3 0.00 0.97 0.97 71 1019.7
20260830044510 62 301 0.9 2.6 0.00 0.97 0.97 72 1019.7
20260830044006 62 294 0.9 1.7 0.00 0.97 0.97 73 1019.7
20260830043509 62 321 0.0 1.7 0.00 0.97 0.97 74 1019.7
20260830043016 62 302 0.0 1.7 0.00 0.97 0.97 74 1019.6
20260830042513 62 322 0.9 2.6 0.00 0.97 0.97 74 1019.6
20260830042011 62 303 0.9 2.6 0.00 0.97 0.97 74 1019.5
20260830041524 62 326 0.9 1.7 0.00 0.97 0.97 74 1019.5
20260830041016 62 346 0.0 1.7 0.00 0.97 0.97 74 1019.4
20260830040515 62 16 0.0 1.7 0.00 0.97 0.97 74 1019.4
20260830040029 63 360 0.0 1.7 0.00 0.97 0.97 75 1019.3
20260830035513 63 338 0.9 1.7 0.00 0.97 0.97 74 1019.3
20260830035017 63 28 0.0 1.7 0.00 0.97 0.97 74 1019.3
20260830034533 63 15 0.0 1.7 0.00 0.97 0.97 74 1019.3
20260830034004 63 37 0.0 1.7 0.00 0.97 0.97 74 1019.3
20260830033508 63 76 0.0 1.7 0.00 0.97 0.97 74 1019.1
20260830033016 63 85 0.0 1.7 0.00 0.97 0.97 73 1019.1
20260830032512 63 85 0.0 1.7 0.00 0.97 0.97 73 1019.0
20260830032008 64 85 0.0 1.7 0.00 0.97 0.97 73 1018.9
20260830031523 64 78 0.0 1.7 0.00 0.97 0.97 71 1018.8